Location: Chervonnoye
(48.6000°N, 34.4000°E)
Time: 06:42:50
(UTC+00:00)

BEESAT 3 - Pass Details

Date: 14 December 2021
Orbit: 472 x 512 km, 64.9° (Epoch: 22 January)

Event Time Altitude Azimuth Distance (km) Brightness Sun altitude
Rises 14:46:01 0° 223° (SW) 2,552 ? -9.3°
Reaches altitude 10° 14:48:09 10° 225° (SW) 1,683 ? -9.6°
Maximum altitude 14:51:54 71° 310° (NW) 532 ? -10.2°
Enters shadow 14:55:30 11° 35° (NE) 1,628 ? -10.7°
